Location: Newark
(51.3000°N, 178.2000°W)
Time: 00:58:33
(UTC+00:00)

ISS - Pass Details

Date: 18 May 2021
Orbit: 417 x 422 km, 51.6° (Epoch: 15 June)

Event Time Altitude Azimuth Distance (km) Brightness Sun altitude
Rises 08:26:23 0° 230° (SW) 2,356 0.1 -6.4°
Reaches altitude 10° 08:28:33 10° 222° (SW) 1,496 -1.0 -6.6°
Maximum altitude 08:31:42 38° 153° (SSE) 661 -3.2 -7.0°
Drops below altitude 10° 08:34:51 10° 83° (E) 1,505 -1.3 -7.3°
Sets 08:37:02 0° 76° (ENE) 2,373 -0.2 -7.5°
